[Iaude] MPEC B119: 2024 BV2 [a=1.40,e=0.30,i=6.5,H=27.6]
    mpec at marsden.cfa.harvard.edu 
    mpec at marsden.cfa.harvard.edu
       
    Tue Jan 23 20:54:50 EST 2024
    
    
  
M.P.E.C. 2024-B119                             Issued 2024 January 24, 01:53 UT
     The Minor Planet Electronic Circulars contain information on unusual
         minor planets, routine data on comets and natural satellites,
         and occasional editorial announcements.  They are published
    on behalf of Division F of the International Astronomical Union by the
          Minor Planet Center, Smithsonian Astrophysical Observatory,
                          Cambridge, MA 02138, U.S.A.
			  
             Prepared using the Tamkin Foundation Computer Network
                              MPC at CFA.HARVARD.EDU
            URL https://www.minorplanetcenter.net/    ISSN 1523-6714
                                    2024 BV2                                    
Observations:
     K24B02V* C2024 01 18.45216011 24 07.484+26 57 13.68         21.48GVEB119V00
     K24B02V  C2024 01 18.46092911 24 02.963+26 54 14.58         20.95GVEB119V00
     K24B02V  C2024 01 18.47437111 23 56.015+26 49 40.62         21.41GVEB119V00
     K24B02V KC2024 01 18.52959 11 23 28.01 +26 30 50.6          21.3 RVEB119291
     K24B02V KC2024 01 18.53182 11 23 26.91 +26 30 04.7          21.1 RVEB119291
     K24B02V KC2024 01 19.33507 11 18 57.79 +22 08 24.9          21.7 GVEB119291
     K24B02V KC2024 01 19.34032 11 18 55.56 +22 06 48.0          21.7 GVEB119291
     K24B02V KC2024 01 19.34556 11 18 53.31 +22 05 11.9                VEB119291
     K24B02V KC2024 01 20.54470 11 12 20.12 +16 11 24.6                VEB119291
     K24B02V KC2024 01 20.54984 11 12 18.25 +16 09 57.4                VEB119291
Observer details:
291 LPL/Spacewatch II.  Observers C. Lejoly, R. A. Mastaler.  1.8-m f/2.7
    reflector + CCD.
V00 Kitt Peak-Bok.  Observer R. A. Mastaler.  Measurers M. J. Brucker, C. E.
    Woodward, D. Fay, J. B. Fazekas, D. C. Fuls, A. R. Gibbs, H. Groeller, J.
    K. Hogan, R. A. Kowalski, S. M. Larson, C. Lejoly, G. J. Leonard, R. A.
    Mastaler, R. S. McMillan, D. Rankin, R. L. Seaman, A. Serrano, F. C.
    Shelly, K. W. Wierzchos.  2.25-m reflector + 4x4K mosaic CCD.
Orbital elements:
2024 BV2                                                 Earth MOID = 0.0205 AU
Epoch 2023 Sept. 13.0 TT = JDT 2460200.5                Bell                    
M 295.17082              (2000.0)            P               Q                  
n   0.59311597     Peri.  154.26519     -0.14090232     -0.98553221             
a   1.4029525      Node   303.70046     +0.88765269     -0.08362509             
e   0.2953602      Incl.    6.50112     +0.43842814     -0.14742152             
P   1.66           H   27.67          G   0.15           U   9                  
Residuals in seconds of arc
240118 V00  0.0   0.6+    240118 291  0.5+  0.1-    240120 291  0.7-  0.4-
240118 V00  0.1+  0.2-    240119 291  0.5+  2.6+    240120 291  0.3-  1.0-
240118 V00  0.1-  0.4-    240119 291  0.7+  2.4+
240118 291  0.4+  0.0     240119 291  0.7+  2.8+
Ephemeris:
2024 BV2                 a,e,i = 1.40, 0.30, 7                   q = 0.9886
Date    TT    R. A. (2000) Decl.     Delta      r    Elong.  Phase     V
2023 12 25    21 43 03.9 +59 57 08   0.06722 0.9903    93.8    82.3    24.7
...
2024 01 09    15 31 27.5 +77 08 18   0.03164 0.9919   104.8    73.4    22.7
...
2024 01 17    11 34 53.9 +35 36 02   0.02662 1.0009   129.5    49.3    21.6
...
2024 01 23    11 02 30.8 +06 21 53   0.03585 1.0110   137.8    40.8    22.1
2024 01 24    10 59 11.1 +03 06 53   0.03807 1.0130   138.2    40.3    22.2
2024 01 25    10 56 10.4 +00 14 29   0.04042 1.0150   138.6    39.9    22.3
...
2024 01 31    10 42 20.5 -11 17 53   0.05622 1.0288   140.0    38.0    23.0
...
2024 02 08    10 29 36.1 -18 17 56   0.07990 1.0509   142.6    34.7    23.7
...
2024 02 23    10 14 31.1 -21 31 28   0.1301  1.1019   148.2    28.2    24.7
M. P. C. Staff               (C) Copyright 2024 MPC           M.P.E.C. 2024-B119
    
    
More information about the Iaude
mailing list